Location: Newark
(25.7507°S, 31.4676°E)
Time: 00:11:51
(UTC+00:00)

Hubble Space Telescope - Visible Passes

Search period start: 20 January 2020 00:00
Search period end: 30 January 2020 00:00
Orbit: 536 x 540 km, 28.5° (Epoch: 19 January)

Date Brightness Start Highest point End Pass type
(mag) Time Alt. Az. Time Alt. Az. Time Alt. Az.
20 Jan 3.3 00:42:43 16° E 00:42:43 16° E 00:43:35 10° E visible
20 Jan 1.3 02:18:07 20° W 02:20:32 38° NNW 02:24:24 10° NE visible
21 Jan 1.6 02:09:01 28° NW 02:09:53 30° NNW 02:13:32 10° NE visible
21 Jan 2.8 17:32:18 10° N 17:33:37 11° NNE 17:34:10 11° NE visible
22 Jan 2.2 02:00:06 22° N 02:00:06 22° N 02:02:33 10° NNE visible
22 Jan 2.6 17:20:30 10° N 17:22:56 15° NNE 17:25:13 10° ENE visible
22 Jan 3.1 18:59:43 10° WNW 19:00:37 16° NW 19:00:37 16° NW visible
23 Jan 3.2 01:51:19 10° NNE 01:51:19 10° NNE 01:51:26 10° NNE visible
23 Jan 2.3 17:09:12 10° NNW 17:12:14 20° NNE 17:15:17 10° ENE visible
23 Jan 2.0 18:49:02 10° WNW 18:51:29 34° NW 18:51:29 34° NW visible
24 Jan 0.8 18:38:23 10° WNW 18:42:08 70° NW 18:42:08 70° NW visible
25 Jan 0.7 18:27:46 10° WNW 18:31:57 86° S 18:32:34 63° ESE visible
26 Jan 0.8 18:17:12 10° W 18:21:22 75° S 18:22:51 38° ESE visible
27 Jan 1.0 18:06:38 10° W 18:10:47 67° S 18:12:59 26° ESE visible
27 Jan 3.9 19:48:03 10° WSW 19:48:19 12° WSW 19:48:19 12° WSW visible
28 Jan 1.1 17:56:04 10° W 18:00:13 62° S 18:02:59 20° ESE visible
28 Jan 3.6 19:37:27 10° WSW 19:38:19 16° WSW 19:38:19 16° WSW visible
29 Jan 1.2 17:45:32 10° W 17:49:39 59° S 17:52:56 15° ESE visible
29 Jan 3.2 19:26:52 10° WSW 19:28:16 20° WSW 19:28:16 20° WSW visible
